Weather History for KHRI - January, 2013

Change the Weather History Date:

Wednesday, January 9, 2013

  Actual Average (KPDT) Record (KPDT)
Temperature  
Mean Temperature 46 °F 34 °F  
Max Temperature 55 °F 41 °F 67 °F (1990)
Min Temperature 37 °F 28 °F -18 °F (1909)
Degree Days  
Heating Degree Days 19 31  
Month to date heating degree days 282  
Since 1 July heating degree days 2519  
Cooling Degree Days 0 0  
Month to date cooling degree days 0  
Year to date cooling degree days 0  
Moisture  
Dew Point 34 °F    
Average Humidity 68    
Maximum Humidity 89    
Minimum Humidity 51    
Precipitation  
Precipitation 0.00 in 0.05 in 0.61 in (1989)
Month to date precipitation 0.45  
Year to date precipitation 0.45  
Snow  
Snow 0.00 in 0.20 in 6.50 in (1975)
Month to date snowfall 1.4  
Year to date snowfall 1.4  
Since 1 July snowfall 8.9  
Snow Depth -    
Sea Level Pressure  
Sea Level Pressure 29.79 in    
Wind  
Wind Speed 9 mph (SW)    
Max Wind Speed 21 mph    
Max Gust Speed 30 mph    
Visibility 10 miles    
Events      
T = Trace of Precipitation, MM = Missing Value Source: NWS Daily Summary

Daily Weather History Graph

Daily Weather History Graph

Search for Another Location

Airport or City:

Trip Planner

Search our weather history database for the weather conditions in past years. The results will help you decide how hot, cold, wet, or windy it might be!

Date:

Astronomy

Jan. 09, 2013 Rise Set
Actual Time 7:37 AM PST 4:32 PM PST
Civil Twilight 7:03 AM PST 5:05 PM PST
Nautical Twilight 6:25 AM PST 5:43 PM PST
Astronomical Twilight 5:50 AM PST 6:19 PM PST
Moon 5:21 AM PST (1/9) 2:38 PM PST (1/9)
Length of Visible Light 10h 02m
Length of Day
8h 55m
Waning Crescent, 6% of the Moon is Illuminated
Jan 9
Waning Crescent
Jan 11
New
Jan 18
First Quarter
Jan 26
Full
Feb 3
Last Quarter

Hourly Weather History & Observations

Time (PST) Temp. Windchill Dew Point Humidity Pressure Visibility Wind Dir Wind Speed Gust Speed Precip Events Conditions
12:53 AM 39.0 °F 36.8 °F 35.1 °F 86% 29.88 in 10.0 mi South 3.5 mph - N/A   Clear
1:53 AM 39.9 °F 35.8 °F 36.0 °F 86% 29.86 in 10.0 mi SE 5.8 mph - N/A   Clear
2:53 AM 39.0 °F - 36.0 °F 89% 29.84 in 10.0 mi Calm Calm - N/A   Partly Cloudy
3:53 AM 42.1 °F 40.2 °F 36.0 °F 79% 29.82 in 10.0 mi NE 3.5 mph - N/A   Partly Cloudy
4:53 AM 39.9 °F 37.8 °F 36.0 °F 86% 29.79 in 10.0 mi ESE 3.5 mph - N/A   Mostly Cloudy
5:53 AM 44.1 °F 40.1 °F 37.0 °F 76% 29.74 in 10.0 mi ESE 6.9 mph - N/A   Clear
6:53 AM 54.0 °F - 39.0 °F 57% 29.70 in 10.0 mi South 16.1 mph 26.5 mph N/A   Clear
7:53 AM 55.0 °F - 37.0 °F 51% 29.66 in 10.0 mi SSE 15.0 mph - N/A   Clear
9:53 AM 55.0 °F - 37.0 °F 51% 29.65 in 10.0 mi WNW 9.2 mph 21.9 mph N/A   Clear
10:53 AM 50.0 °F - 36.0 °F 59% 29.69 in 10.0 mi West 13.8 mph - N/A   Overcast
11:53 AM 50.0 °F - 37.9 °F 63% 29.70 in 10.0 mi West 12.7 mph 19.6 mph 0.00 in   Overcast
12:53 PM 48.9 °F - 36.0 °F 61% 29.72 in 10.0 mi WSW 16.1 mph 26.5 mph N/A   Overcast
2:53 PM 46.0 °F 38.3 °F 33.1 °F 61% 29.76 in 10.0 mi WSW 20.7 mph 29.9 mph N/A   Overcast
3:53 PM 45.0 °F 37.1 °F 32.0 °F 60% 29.79 in 10.0 mi WSW 19.6 mph 25.3 mph N/A   Mostly Cloudy
4:53 PM 43.0 °F 36.0 °F 32.0 °F 65% 29.81 in 10.0 mi WSW 13.8 mph 25.3 mph N/A   Scattered Clouds
5:53 PM 42.1 °F 34.2 °F 30.9 °F 65% 29.82 in 10.0 mi WSW 16.1 mph 25.3 mph N/A   Overcast
6:53 PM 41.0 °F 32.2 °F 30.9 °F 67% 29.83 in 10.0 mi WSW 18.4 mph 27.6 mph N/A   Overcast
7:53 PM 39.9 °F 30.5 °F 30.0 °F 68% 29.84 in 10.0 mi WSW 19.6 mph 27.6 mph N/A   Overcast
8:53 PM 39.0 °F 30.3 °F 28.9 °F 67% 29.86 in 10.0 mi WSW 16.1 mph 21.9 mph N/A   Overcast
9:53 PM 39.0 °F 31.0 °F 28.9 °F 67% 29.87 in 10.0 mi WSW 13.8 mph 21.9 mph N/A   Clear
10:53 PM 37.9 °F 29.6 °F 28.9 °F 70% 29.88 in 10.0 mi WSW 13.8 mph 20.7 mph N/A   Clear
11:53 PM 37.0 °F 29.3 °F 28.0 °F 70% 29.88 in 10.0 mi WSW 11.5 mph - N/A   Clear